Year,Month,Day,Hour,Minute,Value (Times are PST for temperature in C)
2012,05,05,00,00,6.20
2012,05,05,00,01,6.20
2012,05,05,00,02,6.20
2012,05,05,00,03,6.20
2012,05,05,00,04,6.20
2012,05,05,00,05,6.20
2012,05,05,00,06,6.20
2012,05,05,00,07,6.20
2012,05,05,00,08,6.20
2012,05,05,00,09,6.20
2012,05,05,00,10,6.10
2012,05,05,00,11,6.10
2012,05,05,00,12,6.10
2012,05,05,00,13,6.10
2012,05,05,00,14,6.10
2012,05,05,00,15,6.00
2012,05,05,00,16,6.00
2012,05,05,00,17,6.00
2012,05,05,00,18,6.00
2012,05,05,00,19,6.10
2012,05,05,00,20,6.00
2012,05,05,00,21,6.00
2012,05,05,00,22,6.00
2012,05,05,00,23,6.00
2012,05,05,00,24,6.00
2012,05,05,00,25,6.00
2012,05,05,00,26,6.00
2012,05,05,00,27,6.00
2012,05,05,00,28,5.90
2012,05,05,00,29,5.90
2012,05,05,00,30,5.90
2012,05,05,00,31,5.90
2012,05,05,00,32,5.90
2012,05,05,00,33,5.90
2012,05,05,00,34,5.90
2012,05,05,00,35,5.80
2012,05,05,00,36,5.80
2012,05,05,00,37,5.80
2012,05,05,00,38,5.80
2012,05,05,00,39,5.80
2012,05,05,00,40,5.80
2012,05,05,00,41,5.80
2012,05,05,00,42,5.80
2012,05,05,00,43,5.80
2012,05,05,00,44,5.80
2012,05,05,00,45,5.80
2012,05,05,00,46,5.80
2012,05,05,00,47,5.90
2012,05,05,00,48,5.90
2012,05,05,00,49,5.90
2012,05,05,00,50,5.90
2012,05,05,00,51,5.90
2012,05,05,00,52,5.90
2012,05,05,00,53,5.90
2012,05,05,00,54,5.80
2012,05,05,00,55,5.80
2012,05,05,00,56,5.80
2012,05,05,00,57,5.80
2012,05,05,00,58,5.80
2012,05,05,00,59,5.80
2012,05,05,01,00,5.80
2012,05,05,01,01,5.80
2012,05,05,01,02,5.80
2012,05,05,01,03,5.80
2012,05,05,01,04,5.80
2012,05,05,01,05,5.80
2012,05,05,01,06,5.80
2012,05,05,01,07,5.80
2012,05,05,01,08,5.80
2012,05,05,01,09,5.80
2012,05,05,01,10,5.80
2012,05,05,01,11,5.80
2012,05,05,01,12,5.80
2012,05,05,01,13,5.80
2012,05,05,01,14,5.80
2012,05,05,01,15,5.80
2012,05,05,01,16,5.80
2012,05,05,01,17,5.80
2012,05,05,01,18,5.80
2012,05,05,01,19,5.80
2012,05,05,01,20,5.80
2012,05,05,01,21,5.80
2012,05,05,01,22,5.80
2012,05,05,01,23,5.70
2012,05,05,01,24,5.70
2012,05,05,01,25,5.70
2012,05,05,01,26,5.60
2012,05,05,01,27,5.60
2012,05,05,01,28,5.50
2012,05,05,01,29,5.50
2012,05,05,01,30,5.50
2012,05,05,01,31,5.40
2012,05,05,01,32,5.40
2012,05,05,01,33,5.40
2012,05,05,01,34,5.40
2012,05,05,01,35,5.40
2012,05,05,01,36,5.40
2012,05,05,01,37,5.40
2012,05,05,01,38,5.40
2012,05,05,01,39,5.40
2012,05,05,01,40,5.40
2012,05,05,01,41,5.30
2012,05,05,01,42,5.30
2012,05,05,01,43,5.30
2012,05,05,01,44,5.30
2012,05,05,01,45,5.30
2012,05,05,01,46,5.30
2012,05,05,01,47,5.20
2012,05,05,01,48,5.20
2012,05,05,01,49,5.10
2012,05,05,01,50,5.10
2012,05,05,01,51,5.10
2012,05,05,01,52,5.10
2012,05,05,01,53,5.10
2012,05,05,01,54,5.10
2012,05,05,01,55,5.10
2012,05,05,01,56,5.10
2012,05,05,01,57,5.10
2012,05,05,01,58,5.00
2012,05,05,01,59,5.00
2012,05,05,02,00,5.00
2012,05,05,02,01,4.90
2012,05,05,02,02,4.90
2012,05,05,02,03,4.90
2012,05,05,02,04,4.90
2012,05,05,02,05,4.90
2012,05,05,02,06,4.90
2012,05,05,02,07,4.90
2012,05,05,02,08,4.90
2012,05,05,02,09,4.90
2012,05,05,02,10,4.90
2012,05,05,02,11,4.90
2012,05,05,02,12,4.90
2012,05,05,02,13,4.90
2012,05,05,02,14,4.90
2012,05,05,02,15,4.90
2012,05,05,02,16,4.90
2012,05,05,02,17,5.00
2012,05,05,02,18,5.00
2012,05,05,02,19,5.10
2012,05,05,02,20,5.10
2012,05,05,02,21,5.10
2012,05,05,02,22,5.10
2012,05,05,02,23,5.10
2012,05,05,02,24,5.10
2012,05,05,02,25,5.00
2012,05,05,02,26,5.00
2012,05,05,02,27,4.90
2012,05,05,02,28,4.90
2012,05,05,02,29,4.90
2012,05,05,02,30,4.90
2012,05,05,02,31,4.80
2012,05,05,02,32,4.80
2012,05,05,02,33,4.80
2012,05,05,02,34,4.80
2012,05,05,02,35,4.80
2012,05,05,02,36,4.80
2012,05,05,02,37,4.70
2012,05,05,02,38,4.70
2012,05,05,02,39,4.70
2012,05,05,02,40,4.60
2012,05,05,02,41,4.60
2012,05,05,02,42,4.50
2012,05,05,02,43,4.50
2012,05,05,02,44,4.40
2012,05,05,02,45,4.40
2012,05,05,02,46,4.30
2012,05,05,02,47,4.30
2012,05,05,02,48,4.40
2012,05,05,02,49,4.40
2012,05,05,02,50,4.50
2012,05,05,02,51,4.60
2012,05,05,02,52,4.60
2012,05,05,02,53,4.70
2012,05,05,02,54,4.80
2012,05,05,02,55,4.80
2012,05,05,02,56,5.00
2012,05,05,02,57,5.00
2012,05,05,02,58,5.10
2012,05,05,02,59,5.20
2012,05,05,03,00,5.20
2012,05,05,03,01,5.30
2012,05,05,03,02,5.30
2012,05,05,03,03,5.30
2012,05,05,03,04,5.30
2012,05,05,03,05,5.30
2012,05,05,03,06,5.20
2012,05,05,03,07,5.20
2012,05,05,03,08,5.10
2012,05,05,03,09,5.10
2012,05,05,03,10,5.10
2012,05,05,03,11,5.10
2012,05,05,03,12,5.20
2012,05,05,03,13,5.20
2012,05,05,03,14,5.20
2012,05,05,03,15,5.20
2012,05,05,03,16,5.20
2012,05,05,03,17,5.10
2012,05,05,03,18,5.10
2012,05,05,03,19,5.00
2012,05,05,03,20,4.90
2012,05,05,03,21,4.90
2012,05,05,03,22,4.90
2012,05,05,03,23,4.90
2012,05,05,03,24,4.90
2012,05,05,03,25,4.90
2012,05,05,03,26,4.90
2012,05,05,03,27,4.80
2012,05,05,03,28,4.80
2012,05,05,03,29,4.70
2012,05,05,03,30,4.70
2012,05,05,03,31,4.70
2012,05,05,03,32,4.60
2012,05,05,03,33,4.60
2012,05,05,03,34,4.60
2012,05,05,03,35,4.60
2012,05,05,03,36,4.60
2012,05,05,03,37,4.60
2012,05,05,03,38,4.60
2012,05,05,03,39,4.70
2012,05,05,03,40,4.80
2012,05,05,03,41,4.80
2012,05,05,03,42,4.90
2012,05,05,03,43,4.90
2012,05,05,03,44,5.00
2012,05,05,03,45,5.10
2012,05,05,03,46,5.10
2012,05,05,03,47,5.10
2012,05,05,03,48,5.10
2012,05,05,03,49,5.20
2012,05,05,03,50,5.20
2012,05,05,04,49,5.50
2012,05,05,04,50,5.60
2012,05,05,04,51,5.60
2012,05,05,04,52,5.60
2012,05,05,04,53,5.60
2012,05,05,04,54,5.60
2012,05,05,04,55,5.60
2012,05,05,04,56,5.60
2012,05,05,04,57,5.60
2012,05,05,04,58,5.60
2012,05,05,04,59,5.60
2012,05,05,05,00,5.60
2012,05,05,05,01,5.60
2012,05,05,05,02,5.60
2012,05,05,05,03,5.60
2012,05,05,05,04,5.60
2012,05,05,05,05,5.60
2012,05,05,05,06,5.50
2012,05,05,05,07,5.50
2012,05,05,05,08,5.50
2012,05,05,05,09,5.50
2012,05,05,05,10,5.50
2012,05,05,05,11,5.50
2012,05,05,05,12,5.50
2012,05,05,05,13,5.50
2012,05,05,05,14,5.60
2012,05,05,05,15,5.60
2012,05,05,05,16,5.60
2012,05,05,05,17,5.60
2012,05,05,05,18,5.60
2012,05,05,05,19,5.60
2012,05,05,05,20,5.60
2012,05,05,05,21,5.60
2012,05,05,05,22,5.60
2012,05,05,05,23,5.60
2012,05,05,05,24,5.60
2012,05,05,05,25,5.60
2012,05,05,05,26,5.60
2012,05,05,05,27,5.60
2012,05,05,05,28,5.60
2012,05,05,05,29,5.60
2012,05,05,05,30,5.60
2012,05,05,05,31,5.60
2012,05,05,05,32,5.60
2012,05,05,05,33,5.60
2012,05,05,05,34,5.60
2012,05,05,05,35,5.60
2012,05,05,05,36,5.60
2012,05,05,05,37,5.60
2012,05,05,05,38,5.60
2012,05,05,05,39,5.60
2012,05,05,05,40,5.70
2012,05,05,05,41,5.70
2012,05,05,05,42,5.70
2012,05,05,05,43,5.70
2012,05,05,05,44,5.70
2012,05,05,05,45,5.70
2012,05,05,05,46,5.70
2012,05,05,05,47,5.70
2012,05,05,05,48,5.70
2012,05,05,05,49,5.70
2012,05,05,05,50,5.80
2012,05,05,05,51,5.80
2012,05,05,05,52,5.80
2012,05,05,05,53,5.80
2012,05,05,05,54,5.80
2012,05,05,05,55,5.80
2012,05,05,05,56,5.80
2012,05,05,05,57,5.80
2012,05,05,05,58,5.90
2012,05,05,05,59,5.90
2012,05,05,06,00,5.90
2012,05,05,06,01,5.90
2012,05,05,06,02,5.90
2012,05,05,06,03,5.90
2012,05,05,06,04,5.90
2012,05,05,06,05,5.90
2012,05,05,06,06,5.90
2012,05,05,06,07,5.90
2012,05,05,06,08,5.90
2012,05,05,06,09,5.90
2012,05,05,06,10,6.00
2012,05,05,06,11,6.00
2012,05,05,06,12,6.00
2012,05,05,06,13,6.00
2012,05,05,06,14,6.00
2012,05,05,06,15,6.00
2012,05,05,06,16,6.00
2012,05,05,06,17,6.00
2012,05,05,06,18,6.10
2012,05,05,06,19,6.10
2012,05,05,06,20,6.10
2012,05,05,06,21,6.10
2012,05,05,06,22,6.10
2012,05,05,06,23,6.10
2012,05,05,06,24,6.10
2012,05,05,06,25,6.10
2012,05,05,06,26,6.20
2012,05,05,06,27,6.20
2012,05,05,06,28,6.20
2012,05,05,06,29,6.20
2012,05,05,06,30,6.20
2012,05,05,06,31,6.20
2012,05,05,06,32,6.20
2012,05,05,06,33,6.30
2012,05,05,06,34,6.30
2012,05,05,06,35,6.30
2012,05,05,06,36,6.30
2012,05,05,06,37,6.40
2012,05,05,06,38,6.40
2012,05,05,06,39,6.40
2012,05,05,06,40,6.40
2012,05,05,06,41,6.40
2012,05,05,06,42,6.40
2012,05,05,06,43,6.50
2012,05,05,06,44,6.50
2012,05,05,06,45,6.50
2012,05,05,06,46,6.50
2012,05,05,06,47,6.60
2012,05,05,06,48,6.60
2012,05,05,06,49,6.60
2012,05,05,06,50,6.60
2012,05,05,06,51,6.60
2012,05,05,06,52,6.60
2012,05,05,06,53,6.60
2012,05,05,06,54,6.60
2012,05,05,06,55,6.70
2012,05,05,06,56,6.70
2012,05,05,06,57,6.70
2012,05,05,06,58,6.70
2012,05,05,06,59,6.80
2012,05,05,07,00,6.80
2012,05,05,07,01,6.80
2012,05,05,07,02,6.80
2012,05,05,07,03,6.90
2012,05,05,07,04,6.90
2012,05,05,07,05,6.90
2012,05,05,07,06,6.90
2012,05,05,07,07,7.00
2012,05,05,07,08,7.00
2012,05,05,07,09,7.00
2012,05,05,07,10,7.10
2012,05,05,07,11,7.10
2012,05,05,07,12,7.20
2012,05,05,07,13,7.20
2012,05,05,07,14,7.20
2012,05,05,07,15,7.20
2012,05,05,07,16,7.20
2012,05,05,07,17,7.30
2012,05,05,07,18,7.30
2012,05,05,07,19,7.30
2012,05,05,07,20,7.30
2012,05,05,07,21,7.30
2012,05,05,07,22,7.40
2012,05,05,07,23,7.40
2012,05,05,07,24,7.40
2012,05,05,07,25,7.50
2012,05,05,07,26,7.50
2012,05,05,07,27,7.50
2012,05,05,07,28,7.60
2012,05,05,07,29,7.60
2012,05,05,07,30,7.60
2012,05,05,07,31,7.60
2012,05,05,07,32,7.60
2012,05,05,07,33,7.60
2012,05,05,07,34,7.70
2012,05,05,07,35,7.70
2012,05,05,07,36,7.70
2012,05,05,07,37,7.70
2012,05,05,07,38,7.70
2012,05,05,07,39,7.70
2012,05,05,07,40,7.70
2012,05,05,07,41,7.70
2012,05,05,07,42,7.70
2012,05,05,07,43,7.70
2012,05,05,07,44,7.70
2012,05,05,07,45,7.70
2012,05,05,07,46,7.70
2012,05,05,07,47,7.70
2012,05,05,07,48,7.70
2012,05,05,07,49,7.70
2012,05,05,07,50,7.70
2012,05,05,07,51,7.70
2012,05,05,07,52,7.70
2012,05,05,07,53,7.70
2012,05,05,07,54,7.70
2012,05,05,07,55,7.70
2012,05,05,07,56,7.70
2012,05,05,07,57,7.70
2012,05,05,07,58,7.80
2012,05,05,07,59,7.80
2012,05,05,08,00,7.80
2012,05,05,08,01,7.80
2012,05,05,08,02,7.80
2012,05,05,08,03,7.80
2012,05,05,08,04,7.80
2012,05,05,08,05,7.80
2012,05,05,08,06,7.80
2012,05,05,08,07,7.80
2012,05,05,08,08,7.80
2012,05,05,08,09,7.90
2012,05,05,08,10,7.90
2012,05,05,08,11,7.90
2012,05,05,08,12,7.90
2012,05,05,08,13,7.90
2012,05,05,08,14,7.90
2012,05,05,08,15,7.90
2012,05,05,08,16,7.90
2012,05,05,08,17,7.90
2012,05,05,08,18,7.90
2012,05,05,08,19,8.00
2012,05,05,08,20,8.00
2012,05,05,08,21,8.00
2012,05,05,08,22,8.00
2012,05,05,08,23,8.00
2012,05,05,08,24,8.00
2012,05,05,08,25,8.00
2012,05,05,08,26,8.10
2012,05,05,08,27,8.10
2012,05,05,08,28,8.10
2012,05,05,08,29,8.10
2012,05,05,08,30,8.10
2012,05,05,08,31,8.20
2012,05,05,08,32,8.20
2012,05,05,08,33,8.20
2012,05,05,08,34,8.30
2012,05,05,08,35,8.30
2012,05,05,08,36,8.30
2012,05,05,08,37,8.40
2012,05,05,08,38,8.50
2012,05,05,08,39,8.50
2012,05,05,08,40,8.60
2012,05,05,08,41,8.70
2012,05,05,08,42,8.80
2012,05,05,08,43,8.90
2012,05,05,08,44,9.00
2012,05,05,08,45,9.10
2012,05,05,08,46,9.20
2012,05,05,08,47,9.30
2012,05,05,08,48,9.40
2012,05,05,08,49,9.50
2012,05,05,08,50,9.60
2012,05,05,08,51,9.60
2012,05,05,08,52,9.70
2012,05,05,08,53,9.70
2012,05,05,08,54,9.80
2012,05,05,08,55,9.80
2012,05,05,08,56,9.90
2012,05,05,08,57,9.90
2012,05,05,08,58,9.80
2012,05,05,08,59,9.80
2012,05,05,09,00,9.70
2012,05,05,09,01,9.70
2012,05,05,09,02,9.70
2012,05,05,09,03,9.70
2012,05,05,09,04,9.70
2012,05,05,09,05,9.70
2012,05,05,09,06,9.70
2012,05,05,09,07,9.70
2012,05,05,09,08,9.60
2012,05,05,09,09,9.60
2012,05,05,09,10,9.60
2012,05,05,09,11,9.60
2012,05,05,09,12,9.60
2012,05,05,09,13,9.60
2012,05,05,09,14,9.60
2012,05,05,09,15,9.60
2012,05,05,09,16,9.60
2012,05,05,09,17,9.60
2012,05,05,09,18,9.50
2012,05,05,09,19,9.50
2012,05,05,09,20,9.40
2012,05,05,09,21,9.40
2012,05,05,09,22,9.40
2012,05,05,09,23,9.40
2012,05,05,09,24,9.40
2012,05,05,09,25,9.40
2012,05,05,09,26,9.40
2012,05,05,09,27,9.40
2012,05,05,09,28,9.40
2012,05,05,09,29,9.50
2012,05,05,09,30,9.50
2012,05,05,09,31,9.60
2012,05,05,09,32,9.60
2012,05,05,09,33,9.70
2012,05,05,09,34,9.70
2012,05,05,09,35,9.70
2012,05,05,09,36,9.80
2012,05,05,09,37,9.80
2012,05,05,09,38,9.90
2012,05,05,09,39,9.90
2012,05,05,09,40,9.90
2012,05,05,09,41,10.00
2012,05,05,09,42,10.00
2012,05,05,09,43,10.00
2012,05,05,09,44,9.90
2012,05,05,09,45,9.90
2012,05,05,09,46,9.90
2012,05,05,09,47,9.90
2012,05,05,09,48,9.80
2012,05,05,09,49,9.80
2012,05,05,09,50,9.80
2012,05,05,09,51,9.90
2012,05,05,09,52,9.90
2012,05,05,09,53,9.90
2012,05,05,09,54,9.80
2012,05,05,09,55,9.80
2012,05,05,09,56,9.80
2012,05,05,09,57,9.80
2012,05,05,09,58,9.80
2012,05,05,09,59,9.80
2012,05,05,10,00,9.80
2012,05,05,10,01,9.90
2012,05,05,10,02,9.90
2012,05,05,10,03,10.00
2012,05,05,10,04,10.10
2012,05,05,10,05,10.20
2012,05,05,10,06,10.30
2012,05,05,10,07,10.40
2012,05,05,10,08,10.60
2012,05,05,10,09,10.80
2012,05,05,10,10,11.00
2012,05,05,10,11,11.10
2012,05,05,10,12,11.20
2012,05,05,10,13,11.20
2012,05,05,10,14,11.20
2012,05,05,10,15,11.20
2012,05,05,10,16,11.10
2012,05,05,10,17,11.10
2012,05,05,10,18,11.00
2012,05,05,10,19,11.00
2012,05,05,10,20,11.10
2012,05,05,10,21,11.10
2012,05,05,10,22,11.00
2012,05,05,10,23,11.00
2012,05,05,10,24,10.90
2012,05,05,10,25,10.90
2012,05,05,10,26,10.90
2012,05,05,10,27,10.90
2012,05,05,10,28,10.90
2012,05,05,10,29,10.90
2012,05,05,10,30,10.90
2012,05,05,10,31,10.80
2012,05,05,10,32,10.80
2012,05,05,10,33,10.80
2012,05,05,10,34,10.80
2012,05,05,10,35,10.80
2012,05,05,10,36,10.80
2012,05,05,10,37,10.80
2012,05,05,10,38,10.80
2012,05,05,10,39,10.80
2012,05,05,10,40,10.80
2012,05,05,10,41,10.80
2012,05,05,10,42,10.80
2012,05,05,10,43,10.80
2012,05,05,10,44,10.70
2012,05,05,10,45,10.60
2012,05,05,10,46,10.60
2012,05,05,10,47,10.50
2012,05,05,10,48,10.50
2012,05,05,10,49,10.40
2012,05,05,10,50,10.30
2012,05,05,10,51,10.20
2012,05,05,10,52,10.20
2012,05,05,10,53,10.10
2012,05,05,10,54,10.00
2012,05,05,10,55,9.90
2012,05,05,10,56,9.90
2012,05,05,10,57,9.90
2012,05,05,10,58,10.00
2012,05,05,10,59,10.00
2012,05,05,11,00,10.10
2012,05,05,11,01,10.10
2012,05,05,11,02,10.20
2012,05,05,11,03,10.30
2012,05,05,11,04,10.30
2012,05,05,11,05,10.30
2012,05,05,11,06,10.30
2012,05,05,11,07,10.30
2012,05,05,11,08,10.40
2012,05,05,11,09,10.40
2012,05,05,11,10,10.50
2012,05,05,11,11,10.60
2012,05,05,11,12,10.70
2012,05,05,11,13,10.70
2012,05,05,11,14,10.70
2012,05,05,11,15,10.70
2012,05,05,11,16,10.70
2012,05,05,11,17,10.70
2012,05,05,11,18,10.70
2012,05,05,11,19,10.70
2012,05,05,11,20,10.70
2012,05,05,11,21,10.70
2012,05,05,11,22,10.60
2012,05,05,11,23,10.60
2012,05,05,11,24,10.50
2012,05,05,11,25,10.50
2012,05,05,11,26,10.40
2012,05,05,11,27,10.30
2012,05,05,11,28,10.30
2012,05,05,11,29,10.20
2012,05,05,11,30,10.20
2012,05,05,11,31,10.20
2012,05,05,11,32,10.10
2012,05,05,11,33,10.10
2012,05,05,11,34,10.20
2012,05,05,11,35,10.30
2012,05,05,11,36,10.40
2012,05,05,11,37,10.50
2012,05,05,11,38,10.60
2012,05,05,11,39,10.80
2012,05,05,11,40,10.90
2012,05,05,11,41,11.00
2012,05,05,11,42,11.10
2012,05,05,11,43,11.10
2012,05,05,11,44,11.10
2012,05,05,11,45,11.10
2012,05,05,11,46,11.10
2012,05,05,11,47,11.10
2012,05,05,11,48,11.10
2012,05,05,11,49,11.00
2012,05,05,11,50,11.00
2012,05,05,11,51,11.00
2012,05,05,11,52,11.10
2012,05,05,11,53,11.20
2012,05,05,11,54,11.30
2012,05,05,11,55,11.50
2012,05,05,11,56,11.60
2012,05,05,11,57,11.70
2012,05,05,11,58,11.90
2012,05,05,11,59,12.10
2012,05,05,12,00,12.30
2012,05,05,12,01,12.50
2012,05,05,12,02,12.60
2012,05,05,12,03,12.70
2012,05,05,12,04,12.80
2012,05,05,12,05,12.80
2012,05,05,12,06,12.80
2012,05,05,12,07,12.80
2012,05,05,12,08,12.70
2012,05,05,12,09,12.50
2012,05,05,12,10,12.40
2012,05,05,12,11,12.30
2012,05,05,12,12,12.20
2012,05,05,12,13,12.20
2012,05,05,12,14,12.20
2012,05,05,12,15,12.30
2012,05,05,12,16,12.40
2012,05,05,12,17,12.40
2012,05,05,12,18,12.30
2012,05,05,12,19,12.10
2012,05,05,12,20,11.90
2012,05,05,12,21,11.70
2012,05,05,12,22,11.70
2012,05,05,12,23,11.70
2012,05,05,12,24,11.80
2012,05,05,12,25,11.80
2012,05,05,12,26,11.90
2012,05,05,12,27,11.90
2012,05,05,12,28,11.90
2012,05,05,12,29,11.90
2012,05,05,12,30,11.90
2012,05,05,12,31,11.80
2012,05,05,12,32,11.80
2012,05,05,12,33,11.80
2012,05,05,12,34,11.90
2012,05,05,12,35,12.00
2012,05,05,12,36,12.10
2012,05,05,12,37,12.20
2012,05,05,12,38,12.30
2012,05,05,12,39,12.30
2012,05,05,12,40,12.40
2012,05,05,12,41,12.40
2012,05,05,12,42,12.40
2012,05,05,12,43,12.50
2012,05,05,12,44,12.50
2012,05,05,12,45,12.50
2012,05,05,12,46,12.40
2012,05,05,12,47,12.40
2012,05,05,12,48,12.40
2012,05,05,12,49,12.30
2012,05,05,12,50,12.30
2012,05,05,12,51,12.20
2012,05,05,12,52,12.00
2012,05,05,12,53,12.00
2012,05,05,12,54,11.90
2012,05,05,12,55,11.80
2012,05,05,12,56,11.80
2012,05,05,12,57,11.70
2012,05,05,12,58,11.70
2012,05,05,12,59,11.70
2012,05,05,13,00,11.70
2012,05,05,13,01,11.70
2012,05,05,13,02,11.70
2012,05,05,13,03,11.80
2012,05,05,13,04,11.80
2012,05,05,13,05,11.80
2012,05,05,13,06,11.80
2012,05,05,13,07,11.80
2012,05,05,13,08,11.80
2012,05,05,13,09,11.80
2012,05,05,13,10,11.70
2012,05,05,13,11,11.70
2012,05,05,13,12,11.70
2012,05,05,13,13,11.70
2012,05,05,13,14,11.60
2012,05,05,13,15,11.70
2012,05,05,13,16,11.70
2012,05,05,13,17,11.70
2012,05,05,13,18,11.80
2012,05,05,13,19,11.80
2012,05,05,13,20,11.80
2012,05,05,13,21,11.80
2012,05,05,13,22,11.70
2012,05,05,13,23,11.70
2012,05,05,13,24,11.70
2012,05,05,13,25,11.80
2012,05,05,13,26,11.80
2012,05,05,13,27,11.80
2012,05,05,13,28,11.80
2012,05,05,13,29,11.70
2012,05,05,13,30,11.70
2012,05,05,13,31,11.60
2012,05,05,13,32,11.50
2012,05,05,13,33,11.50
2012,05,05,13,34,11.40
2012,05,05,13,35,11.40
2012,05,05,13,36,11.40
2012,05,05,13,37,11.40
2012,05,05,13,38,11.40
2012,05,05,13,39,11.40
2012,05,05,13,40,11.50
2012,05,05,13,41,11.60
2012,05,05,13,42,11.60
2012,05,05,13,43,11.70
2012,05,05,13,44,11.80
2012,05,05,13,45,11.90
2012,05,05,13,46,11.90
2012,05,05,13,47,11.90
2012,05,05,13,48,12.00
2012,05,05,13,49,12.00
2012,05,05,13,50,12.00
2012,05,05,13,51,11.90
2012,05,05,13,52,11.90
2012,05,05,13,53,11.90
2012,05,05,13,54,11.90
2012,05,05,13,55,11.90
2012,05,05,13,56,11.90
2012,05,05,13,57,11.90
2012,05,05,13,58,11.90
2012,05,05,13,59,12.00
2012,05,05,14,00,12.10
2012,05,05,14,01,12.10
2012,05,05,14,02,12.10
2012,05,05,14,03,12.20
2012,05,05,14,04,12.20
2012,05,05,14,05,12.20
2012,05,05,14,06,12.20
2012,05,05,14,07,12.20
2012,05,05,14,08,12.10
2012,05,05,14,09,12.00
2012,05,05,14,10,12.00
2012,05,05,14,11,12.10
2012,05,05,14,12,12.10
2012,05,05,14,13,12.10
2012,05,05,14,14,12.10
2012,05,05,14,15,12.20
2012,05,05,14,16,12.20
2012,05,05,14,17,12.20
2012,05,05,14,18,12.20
2012,05,05,14,19,12.10
2012,05,05,14,20,12.10
2012,05,05,14,21,12.10
2012,05,05,14,22,12.00
2012,05,05,14,23,12.10
2012,05,05,14,24,12.10
2012,05,05,14,25,12.10
2012,05,05,14,26,12.10
2012,05,05,14,27,12.10
2012,05,05,14,28,12.10
2012,05,05,14,29,12.00
2012,05,05,14,30,12.00
2012,05,05,14,31,12.10
2012,05,05,14,32,12.10
2012,05,05,14,33,12.10
2012,05,05,14,34,12.20
2012,05,05,14,35,12.20
2012,05,05,14,36,12.20
2012,05,05,14,37,12.30
2012,05,05,14,38,12.30
2012,05,05,14,39,12.40
2012,05,05,14,40,12.40
2012,05,05,14,41,12.40
2012,05,05,14,42,12.40
2012,05,05,14,43,12.40
2012,05,05,14,44,12.40
2012,05,05,14,45,12.40
2012,05,05,14,46,12.30
2012,05,05,14,47,12.30
2012,05,05,14,48,12.30
2012,05,05,14,49,12.30
2012,05,05,14,50,12.30
2012,05,05,14,51,12.40
2012,05,05,14,52,12.40
2012,05,05,14,53,12.40
2012,05,05,14,54,12.40
2012,05,05,14,55,12.40
2012,05,05,14,56,12.40
2012,05,05,14,57,12.40
2012,05,05,14,58,12.40
2012,05,05,14,59,12.40
2012,05,05,15,00,12.40
2012,05,05,15,01,12.40
2012,05,05,15,02,12.40
2012,05,05,15,03,12.40
2012,05,05,15,04,12.40
2012,05,05,15,05,12.30
2012,05,05,15,06,12.30
2012,05,05,15,07,12.30
2012,05,05,15,08,12.20
2012,05,05,15,09,12.20
2012,05,05,15,10,12.20
2012,05,05,15,11,12.20
2012,05,05,15,12,12.20
2012,05,05,15,13,12.20
2012,05,05,15,14,12.20
2012,05,05,15,15,12.20
2012,05,05,15,16,12.20
2012,05,05,15,17,12.20
2012,05,05,15,18,12.20
2012,05,05,15,19,12.20
2012,05,05,15,20,12.20
2012,05,05,15,21,12.20
2012,05,05,15,22,12.20
2012,05,05,15,23,12.20
2012,05,05,15,24,12.20
2012,05,05,15,25,12.20
2012,05,05,15,26,12.20
2012,05,05,15,27,12.20
2012,05,05,15,28,12.20
2012,05,05,15,29,12.20
2012,05,05,15,30,12.20
2012,05,05,15,31,12.30
2012,05,05,15,32,12.30
2012,05,05,15,33,12.30
2012,05,05,15,34,12.30
2012,05,05,15,35,12.30
2012,05,05,15,36,12.30
2012,05,05,15,37,12.20
2012,05,05,15,38,12.20
2012,05,05,15,39,12.10
2012,05,05,15,40,12.00
2012,05,05,15,41,12.00
2012,05,05,15,42,11.90
2012,05,05,15,43,11.90
2012,05,05,15,44,11.90
2012,05,05,15,45,11.90
2012,05,05,15,46,11.80
2012,05,05,15,47,11.80
2012,05,05,15,48,11.80
2012,05,05,15,49,11.80
2012,05,05,15,50,11.90
2012,05,05,15,51,11.90
2012,05,05,15,52,11.90
2012,05,05,15,53,11.90
2012,05,05,15,54,11.90
2012,05,05,15,55,11.90
2012,05,05,15,56,12.00
2012,05,05,15,57,12.00
2012,05,05,15,58,12.00
2012,05,05,15,59,12.00
2012,05,05,16,00,12.00
2012,05,05,16,01,12.10
2012,05,05,16,02,12.10
2012,05,05,16,03,12.10
2012,05,05,16,04,12.10
2012,05,05,16,05,12.10
2012,05,05,16,06,12.10
2012,05,05,16,07,12.20
2012,05,05,16,08,12.20
2012,05,05,16,09,12.20
2012,05,05,16,10,12.20
2012,05,05,16,11,12.20
2012,05,05,16,12,12.20
2012,05,05,16,13,12.20
2012,05,05,16,14,12.20
2012,05,05,16,15,12.20
2012,05,05,16,16,12.20
2012,05,05,16,17,12.20
2012,05,05,16,18,12.20
2012,05,05,16,19,12.20
2012,05,05,16,20,12.30
2012,05,05,16,21,12.30
2012,05,05,16,22,12.30
2012,05,05,16,23,12.30
2012,05,05,16,24,12.30
2012,05,05,16,25,12.40
2012,05,05,16,26,12.40
2012,05,05,16,27,12.40
2012,05,05,16,28,12.40
2012,05,05,16,29,12.40
2012,05,05,16,30,12.50
2012,05,05,16,31,12.60
2012,05,05,16,32,12.60
2012,05,05,16,33,12.60
2012,05,05,16,34,12.60
2012,05,05,16,35,12.70
2012,05,05,16,36,12.70
2012,05,05,16,37,12.70
2012,05,05,16,38,12.70
2012,05,05,16,39,12.70
2012,05,05,16,40,12.70
2012,05,05,16,41,12.70
2012,05,05,16,42,12.70
2012,05,05,16,43,12.60
2012,05,05,16,44,12.60
2012,05,05,16,45,12.70
2012,05,05,16,46,12.60
2012,05,05,16,47,12.60
2012,05,05,16,48,12.50
2012,05,05,16,49,12.50
2012,05,05,16,50,12.40
2012,05,05,16,51,12.40
2012,05,05,16,52,12.30
2012,05,05,16,53,12.30
2012,05,05,16,54,12.30
2012,05,05,16,55,12.30
2012,05,05,16,56,12.30
2012,05,05,16,57,12.20
2012,05,05,16,58,12.30
2012,05,05,16,59,12.30
2012,05,05,17,00,12.30
2012,05,05,17,01,12.30
2012,05,05,17,02,12.30
2012,05,05,17,03,12.30
2012,05,05,17,04,12.30
2012,05,05,17,05,12.30
2012,05,05,17,06,12.30
2012,05,05,17,07,12.30
2012,05,05,17,08,12.20
2012,05,05,17,09,12.20
2012,05,05,17,10,12.20
2012,05,05,17,11,12.20
2012,05,05,17,12,12.20
2012,05,05,17,13,12.20
2012,05,05,17,14,12.20
2012,05,05,17,15,12.20
2012,05,05,17,16,12.10
2012,05,05,17,17,12.10
2012,05,05,17,18,12.10
2012,05,05,17,19,12.10
2012,05,05,17,20,12.00
2012,05,05,17,21,12.00
2012,05,05,17,22,12.00
2012,05,05,17,23,12.00
2012,05,05,17,24,12.00
2012,05,05,17,25,12.00
2012,05,05,17,26,12.00
2012,05,05,17,27,11.90
2012,05,05,17,28,11.90
2012,05,05,17,29,11.90
2012,05,05,17,30,11.90
2012,05,05,17,31,11.90
2012,05,05,17,32,11.90
2012,05,05,17,33,11.80
2012,05,05,17,34,11.90
2012,05,05,17,35,11.90
2012,05,05,17,36,11.90
2012,05,05,17,37,11.90
2012,05,05,17,38,12.00
2012,05,05,17,39,12.00
2012,05,05,17,40,12.10
2012,05,05,17,41,12.10
2012,05,05,17,42,12.10
2012,05,05,17,43,12.10
2012,05,05,17,44,12.10
2012,05,05,17,45,12.10
2012,05,05,17,46,12.10
2012,05,05,17,47,12.10
2012,05,05,17,48,12.10
2012,05,05,17,49,12.10
2012,05,05,17,50,12.00
2012,05,05,17,51,12.00
2012,05,05,17,52,11.90
2012,05,05,17,53,11.80
2012,05,05,17,54,11.80
2012,05,05,17,55,11.80
2012,05,05,17,56,11.70
2012,05,05,17,57,11.70
2012,05,05,17,58,11.70
2012,05,05,17,59,11.70
2012,05,05,18,00,11.60
2012,05,05,18,01,11.60
2012,05,05,18,02,11.60
2012,05,05,18,03,11.70
2012,05,05,18,04,11.70
2012,05,05,18,05,11.70
2012,05,05,18,06,11.70
2012,05,05,18,07,11.70
2012,05,05,18,08,11.70
2012,05,05,18,09,11.70
2012,05,05,18,10,11.70
2012,05,05,18,11,11.70
2012,05,05,18,12,11.70
2012,05,05,18,13,11.70
2012,05,05,18,14,11.70
2012,05,05,18,15,11.80
2012,05,05,18,16,11.80
2012,05,05,18,17,11.80
2012,05,05,18,18,11.80
2012,05,05,18,19,11.80
2012,05,05,18,20,11.80
2012,05,05,18,21,11.80
2012,05,05,18,22,11.80
2012,05,05,18,23,11.80
2012,05,05,18,24,11.90
2012,05,05,18,25,11.90
2012,05,05,18,26,11.90
2012,05,05,18,27,11.90
2012,05,05,18,28,11.90
2012,05,05,18,29,11.80
2012,05,05,18,30,11.80
2012,05,05,18,31,11.80
2012,05,05,18,32,11.80
2012,05,05,18,33,11.70
2012,05,05,18,34,11.70
2012,05,05,18,35,11.60
2012,05,05,18,36,11.60
2012,05,05,18,37,11.60
2012,05,05,18,38,11.50
2012,05,05,18,39,11.50
2012,05,05,18,40,11.50
2012,05,05,18,41,11.50